Actions

Special

Oldest pages

Showing below up to 250 results in range #1 to #250.

View (previous 250 | next 250) (20 | 50 | 100 | 250 | 500)

  1. Submit Bug Report‏‎ (08:19, 10 May 2018)
  2. Submit Debug Files‏‎ (22:43, 7 November 2018)
  3. Activating a Steam Key‏‎ (22:45, 7 November 2018)
  4. Dark Orbs‏‎ (22:47, 7 November 2018)
  5. Game Slots‏‎ (22:47, 7 November 2018)
  6. No Pay-to-Win Policy‏‎ (09:41, 18 December 2018)
  7. Corvette‏‎ (13:59, 16 January 2019)
  8. Ground Warfare‏‎ (10:35, 17 January 2019)
  9. Upgrading‏‎ (09:37, 29 January 2019)
  10. Manual:Star Map‏‎ (17:19, 29 January 2019)
  11. Manual:Planet Colonized by Player‏‎ (17:44, 29 January 2019)
  12. Manual:Planet View Building‏‎ (10:34, 30 January 2019)
  13. Manual:Planet Buildings‏‎ (10:34, 30 January 2019)
  14. Manual:Star System‏‎ (10:39, 30 January 2019)
  15. Manual:Fleet Management‏‎ (10:43, 30 January 2019)
  16. Manual:Tutorial‏‎ (20:49, 7 February 2019)
  17. Zarion‏‎ (20:54, 16 March 2019)
  18. Freighter‏‎ (12:13, 22 March 2019)
  19. Frigate‏‎ (12:16, 22 March 2019)
  20. Battleship‏‎ (12:19, 22 March 2019)
  21. Dreadnought‏‎ (14:15, 22 March 2019)
  22. Cruiser‏‎ (14:27, 22 March 2019)
  23. Scout‏‎ (17:11, 22 March 2019)
  24. Valkyrie‏‎ (12:27, 26 March 2019)
  25. Invincible‏‎ (12:32, 26 March 2019)
  26. Ocean‏‎ (12:46, 26 March 2019)
  27. Resolute‏‎ (13:30, 26 March 2019)
  28. Nebula‏‎ (13:38, 26 March 2019)
  29. Colorado‏‎ (14:01, 26 March 2019)
  30. Hermes‏‎ (14:14, 26 March 2019)
  31. T55‏‎ (12:56, 28 March 2019)
  32. T43‏‎ (14:21, 28 March 2019)
  33. T37‏‎ (14:54, 28 March 2019)
  34. T64‏‎ (15:16, 28 March 2019)
  35. T11-16‏‎ (15:23, 28 March 2019)
  36. T11-128‏‎ (15:38, 28 March 2019)
  37. T20‏‎ (16:05, 28 March 2019)
  38. T22‏‎ (16:13, 28 March 2019)
  39. Transferring a fleet‏‎ (19:29, 3 April 2019)
  40. Ripchee Hulls‏‎ (18:40, 14 April 2019)
  41. People's Realm Hulls‏‎ (18:45, 14 April 2019)
  42. Steam Update‏‎ (15:48, 26 April 2019)
  43. Escallop‏‎ (20:10, 6 May 2019)
  44. Imperium‏‎ (20:12, 6 May 2019)
  45. Outscape Wiki‏‎ (16:15, 8 May 2019)
  46. Discord overlay‏‎ (12:27, 21 May 2019)
  47. Join a Game‏‎ (13:16, 23 May 2019)
  48. Poisk‏‎ (19:44, 1 June 2019)
  49. Stallion‏‎ (20:45, 1 June 2019)
  50. Banshee‏‎ (20:56, 1 June 2019)
  51. T03‏‎ (20:59, 1 June 2019)
  52. T11-8‏‎ (22:13, 1 June 2019)
  53. T0‏‎ (17:02, 2 June 2019)
  54. Game Over‏‎ (19:03, 6 June 2019)
  55. Syntis Production Level I‏‎ (20:48, 6 June 2019)
  56. Syntis Hulls‏‎ (11:02, 8 June 2019)
  57. Science Power‏‎ (12:43, 8 June 2019)
  58. Home Guard‏‎ (12:50, 8 June 2019)
  59. Alpha‏‎ (15:35, 8 June 2019)
  60. Red Radiance‏‎ (16:23, 8 June 2019)
  61. Solaris‏‎ (22:44, 9 June 2019)
  62. Private Messaging‏‎ (13:47, 11 June 2019)
  63. Troubleshooting‏‎ (10:06, 22 July 2019)
  64. T36‏‎ (10:33, 22 August 2019)
  65. Civilization Terminology‏‎ (21:24, 23 August 2019)
  66. Pseudo speed‏‎ (21:56, 23 August 2019)
  67. Tutorial‏‎ (10:20, 24 August 2019)
  68. Kinetic Cannon SKC-1‏‎ (10:21, 24 August 2019)
  69. Kinetic Cannon SKC-2‏‎ (10:22, 24 August 2019)
  70. Power Cannon SPC-1‏‎ (10:23, 24 August 2019)
  71. Power Cannon SPC-2‏‎ (10:23, 24 August 2019)
  72. About‏‎ (10:27, 24 August 2019)
  73. Deep Space Mining‏‎ (11:52, 24 August 2019)
  74. Industrial Use of Limbalt‏‎ (11:52, 24 August 2019)
  75. Minimization of Beron Smelting Systems‏‎ (11:52, 24 August 2019)
  76. Minimization of Farsu Smelting Systems‏‎ (11:53, 24 August 2019)
  77. Minimization of Limbalt Smelting Systems‏‎ (11:54, 24 August 2019)
  78. Ziryl Fusion System Upgrade‏‎ (11:54, 24 August 2019)
  79. Ziryl-90 Fusion‏‎ (11:54, 24 August 2019)
  80. Communication Control‏‎ (12:01, 24 August 2019)
  81. Decentralization‏‎ (12:07, 24 August 2019)
  82. Globalization‏‎ (12:11, 24 August 2019)
  83. Magnetized Target Fusion‏‎ (12:11, 24 August 2019)
  84. Planet Modification‏‎ (12:23, 24 August 2019)
  85. Science Practice‏‎ (12:24, 24 August 2019)
  86. Scientific Methods‏‎ (12:25, 24 August 2019)
  87. Social Theories‏‎ (12:26, 24 August 2019)
  88. Sub-Particle Fission‏‎ (12:27, 24 August 2019)
  89. Terraforming Technologies‏‎ (12:29, 24 August 2019)
  90. Assault Drop Capsules‏‎ (12:33, 24 August 2019)
  91. Intelligence Warfare‏‎ (12:34, 24 August 2019)
  92. Life Support Modules‏‎ (12:35, 24 August 2019)
  93. Specialized Space Forces‏‎ (12:37, 24 August 2019)
  94. Wave Energy Neutralization‏‎ (12:38, 24 August 2019)
  95. Freight Transport‏‎ (12:40, 24 August 2019)
  96. Military Space Program‏‎ (12:41, 24 August 2019)
  97. Tactical Space Forces‏‎ (12:41, 24 August 2019)
  98. Blast Projectiles I‏‎ (12:50, 24 August 2019)
  99. Efficient Detonation Chambers I‏‎ (12:53, 24 August 2019)
  100. Medium Energy Projection I‏‎ (12:54, 24 August 2019)
  101. Light Energy Projection I‏‎ (12:54, 24 August 2019)
  102. Olzine Extraction‏‎ (12:58, 24 August 2019)
  103. Olzine Pump Minimization‏‎ (12:59, 24 August 2019)
  104. Small Gravity Camera‏‎ (13:00, 24 August 2019)
  105. Automated colony development‏‎ (13:51, 24 August 2019)
  106. Bearon‏‎ (13:56, 24 August 2019)
  107. Blast Projectiles 1‏‎ (15:15, 24 August 2019)
  108. Blast Projectiles 2‏‎ (15:15, 24 August 2019)
  109. Blast Projectiles 3‏‎ (15:15, 24 August 2019)
  110. Clipper‏‎ (15:29, 24 August 2019)
  111. Commanding Fleets‏‎ (16:21, 24 August 2019)
  112. Developer diaries‏‎ (16:28, 24 August 2019)
  113. Evolvanians‏‎ (18:32, 24 August 2019)
  114. Fleet Tooltip‏‎ (18:39, 24 August 2019)
  115. Freight transport‏‎ (18:40, 24 August 2019)
  116. Game Settings‏‎ (18:48, 24 August 2019)
  117. How to Invade a planet‏‎ (19:09, 24 August 2019)
  118. Industrial use of Limbalt‏‎ (19:13, 24 August 2019)
  119. Jettison Pods‏‎ (19:14, 24 August 2019)
  120. Joystick Support‏‎ (19:15, 24 August 2019)
  121. Leaderboards‏‎ (19:17, 24 August 2019)
  122. Light Energy Projection 1‏‎ (19:18, 24 August 2019)
  123. Light Energy Projection 2‏‎ (19:19, 24 August 2019)
  124. Main UI‏‎ (19:21, 24 August 2019)
  125. Manage Structures‏‎ (19:22, 24 August 2019)
  126. Akorokken‏‎ (19:26, 24 August 2019)
  127. Mine Warfare‏‎ (19:51, 24 August 2019)
  128. Cloaking‏‎ (19:53, 24 August 2019)
  129. Notes‏‎ (20:01, 24 August 2019)
  130. Planetary Assault‏‎ (10:25, 25 August 2019)
  131. Player colony scanner‏‎ (10:28, 25 August 2019)
  132. Restarting‏‎ (10:33, 25 August 2019)
  133. Science power‏‎ (10:37, 25 August 2019)
  134. Shields and Armour‏‎ (10:43, 25 August 2019)
  135. Skregons‏‎ (20:02, 25 August 2019)
  136. Specilaized Space Forces‏‎ (20:03, 25 August 2019)
  137. Star Map‏‎ (20:05, 25 August 2019)
  138. Star System‏‎ (20:05, 25 August 2019)
  139. Star System Labels‏‎ (20:06, 25 August 2019)
  140. Streamer Mode‏‎ (20:07, 25 August 2019)
  141. Sub Particle Fission‏‎ (20:07, 25 August 2019)
  142. Upgrading a Ship‏‎ (20:21, 25 August 2019)
  143. Wreckage‏‎ (20:29, 25 August 2019)
  144. Zyril‏‎ (20:30, 25 August 2019)
  145. Entertainment Practice‏‎ (20:37, 25 August 2019)
  146. Social Psychology‏‎ (20:37, 25 August 2019)
  147. Space Colonization‏‎ (20:37, 25 August 2019)
  148. Ship Weapons‏‎ (20:54, 25 August 2019)
  149. Fleet Battles‏‎ (13:47, 26 August 2019)
  150. Galaxy Overview‏‎ (13:49, 26 August 2019)
  151. Planet Management‏‎ (13:51, 26 August 2019)
  152. Planet Management: Population‏‎ (13:54, 26 August 2019)
  153. Research and Technology‏‎ (13:55, 26 August 2019)
  154. How to Avoid Being Ganked‏‎ (14:06, 27 August 2019)
  155. Next Generation of Force Spawner‏‎ (04:54, 28 August 2019)
  156. Military Base Automation‏‎ (04:54, 28 August 2019)
  157. Autonomous Military Bases‏‎ (04:54, 28 August 2019)
  158. Tactical Prediction Unit‏‎ (04:54, 28 August 2019)
  159. Battles‏‎ (16:53, 29 August 2019)
  160. Guides‏‎ (16:58, 29 August 2019)
  161. Transport‏‎ (06:53, 1 September 2019)
  162. Natural Resources‏‎ (06:54, 1 September 2019)
  163. Syntis‏‎ (18:42, 1 September 2019)
  164. Death Warrant‏‎ (19:18, 1 September 2019)
  165. T12‏‎ (19:21, 1 September 2019)
  166. T11-64‏‎ (19:47, 1 September 2019)
  167. T11-32‏‎ (20:02, 1 September 2019)
  168. Leap‏‎ (20:50, 1 September 2019)
  169. Litter‏‎ (06:51, 2 September 2019)
  170. Civilizations‏‎ (15:41, 2 September 2019)
  171. Columbus‏‎ (18:57, 2 September 2019)
  172. Planetary Raiding‏‎ (20:33, 2 September 2019)
  173. Advanced Hydroponics‏‎ (22:26, 3 September 2019)
  174. Boosted Syntis Controller‏‎ (22:26, 3 September 2019)
  175. Olzine Charged Engine‏‎ (08:27, 6 September 2019)
  176. City Centers‏‎ (19:40, 6 September 2019)
  177. Control Centers‏‎ (20:23, 6 September 2019)
  178. Medicinal Happiness Center‏‎ (21:59, 6 September 2019)
  179. Orbital Security‏‎ (07:13, 7 September 2019)
  180. Advanced Extraction Techniques‏‎ (13:44, 9 September 2019)
  181. Treaties‏‎ (09:23, 10 September 2019)
  182. Mankind Hulls‏‎ (10:00, 10 September 2019)
  183. Destroyer‏‎ (18:21, 11 September 2019)
  184. Corruption‏‎ (21:38, 11 September 2019)
  185. Guidance Systems I‏‎ (19:32, 12 September 2019)
  186. Light Energy Projection II‏‎ (20:22, 12 September 2019)
  187. Light Energy Projection III‏‎ (20:22, 12 September 2019)
  188. Blast Projectiles II‏‎ (20:23, 12 September 2019)
  189. Blast Projectiles III‏‎ (20:24, 12 September 2019)
  190. The People's Realm‏‎ (20:34, 12 September 2019)
  191. Technology Quickstart Guide‏‎ (20:35, 12 September 2019)
  192. Mass Colonization‏‎ (20:37, 12 September 2019)
  193. Mankind‏‎ (22:33, 12 September 2019)
  194. Populations‏‎ (09:05, 13 September 2019)
  195. Harpy Scanners‏‎ (16:01, 13 September 2019)
  196. Izzvil‏‎ (17:36, 13 September 2019)
  197. The Harpy‏‎ (17:51, 13 September 2019)
  198. Admiral‏‎ (18:07, 13 September 2019)
  199. Zenith‏‎ (18:08, 13 September 2019)
  200. October‏‎ (18:19, 13 September 2019)
  201. Resource Transfer‏‎ (20:26, 14 September 2019)
  202. Colonizer‏‎ (18:50, 15 September 2019)
  203. Terraforming‏‎ (10:27, 16 September 2019)
  204. Advanced Sensory Systems‏‎ (22:05, 16 September 2019)
  205. Paw‏‎ (22:08, 16 September 2019)
  206. Claw‏‎ (22:10, 16 September 2019)
  207. Rabid‏‎ (22:11, 16 September 2019)
  208. Clowder‏‎ (22:12, 16 September 2019)
  209. Hunter‏‎ (22:14, 16 September 2019)
  210. Saber‏‎ (22:14, 16 September 2019)
  211. Score‏‎ (22:16, 16 September 2019)
  212. Scare‏‎ (22:17, 16 September 2019)
  213. Pride‏‎ (22:18, 16 September 2019)
  214. Technologies‏‎ (14:26, 17 September 2019)
  215. Construction Platforms‏‎ (14:28, 17 September 2019)
  216. Fusion Reactor Efficiency‏‎ (14:29, 17 September 2019)
  217. Ripchee‏‎ (14:31, 17 September 2019)
  218. Dark Energy Charged Engines‏‎ (15:10, 17 September 2019)
  219. Mountain Giants‏‎ (20:47, 17 September 2019)
  220. Incisor‏‎ (10:19, 20 September 2019)
  221. Nuisance‏‎ (10:21, 20 September 2019)
  222. Tribal‏‎ (19:48, 20 September 2019)
  223. Trafalgar‏‎ (19:49, 20 September 2019)
  224. Goliath‏‎ (19:50, 20 September 2019)
  225. Colonization‏‎ (20:47, 20 September 2019)
  226. Alpha Player Guide‏‎ (22:36, 20 September 2019)
  227. Pirates‏‎ (08:49, 21 September 2019)
  228. Multilayer Construction Platforms‏‎ (09:05, 21 September 2019)
  229. Military Bases‏‎ (10:35, 21 September 2019)
  230. Entertainment Centers‏‎ (10:39, 21 September 2019)
  231. Bio-farms‏‎ (10:46, 21 September 2019)
  232. Orbit Defense Systems‏‎ (10:53, 21 September 2019)
  233. Mining‏‎ (11:30, 21 September 2019)
  234. Cargo Transporters‏‎ (11:32, 21 September 2019)
  235. Climate Stations‏‎ (11:38, 21 September 2019)
  236. Hydro Adjustment Stations‏‎ (11:41, 21 September 2019)
  237. Laboratories‏‎ (11:45, 21 September 2019)
  238. Power Stations‏‎ (14:25, 21 September 2019)
  239. Planetary Scanners‏‎ (14:32, 21 September 2019)
  240. Scanner‏‎ (14:39, 21 September 2019)
  241. Shipyards‏‎ (14:45, 21 September 2019)
  242. Orbital Weapons‏‎ (16:16, 21 September 2019)
  243. Happiness‏‎ (14:33, 22 September 2019)
  244. Credits and Taxes‏‎ (14:40, 22 September 2019)
  245. Armour‏‎ (16:39, 22 September 2019)
  246. Assault Troop Carriers‏‎ (18:01, 22 September 2019)
  247. Cargo‏‎ (18:24, 22 September 2019)
  248. Colonization Modules‏‎ (19:21, 22 September 2019)
  249. Energy Weapons‏‎ (19:25, 22 September 2019)
  250. Engines‏‎ (21:17, 22 September 2019)

View (previous 250 | next 250) (20 | 50 | 100 | 250 | 500)